Flag for Canada Weather past 2 weeks in Markham, Ontario, Canada

Now
23 °F

Light snow. Low clouds.


Feels Like: 12 °F
Forecast: N/A
Wind: 10 mph from Southeast

Location: Toronto Buttonville

Current Time: Mar 3, 2015 at 6:14:24 PM

Latest Report: Mar 3, 2015 at 5:00 PM


Visibility: 1 mi

Pressure: 29.68 "Hg

Humidity: 100%

Dew point: 23 °F

Location of MarkhamLocation

Historic Weather in Markham — Graph

°F

Markham temperature yesterday

Maximum temperature yesterday: 27 °F (at 1:00 PM)
Minimum temperature yesterday: 9 °F (at 11:00 PM)
Average temperature yesterday: 21 °F

Past Weeks' High & Low Weather Summary

 TemperatureHumidityPressure
High27 °F (Mar 1, 2:00 PM)100% (Mar 3, 5:00 PM)30.79 "Hg (Mar 3, 5:00 PM)
Low-11 °F (Feb 27, 6:00 AM)24% (Feb 17, 4:00 PM)29.60 "Hg (Feb 25, 3:00 AM)
Average9 °F64%30.19 "Hg
* Reported Feb 16 5:00 PM — Mar 3 5:00 PM, Markham, Weather by CustomWeather, © 2015

Note: Actual official high and low records may vary slightly from our data, if they occured in-between our weather recording intervals... More about our weather records

Advertising

Markham weather history for previous 24 hours

 ConditionsComfort  
Time TempWeatherWind HumidityBarometerVisibility
5:00 PM
Tue, Mar 3
23 °FLight snow. Low clouds.10 mph100%29.68 "Hg1 mi
4:00 PM23 °FLight snow. Low clouds.12 mph93%29.75 "Hg2 mi
3:00 PM21 °FLight snow. Low clouds.10 mph93%29.83 "Hg1 mi
2:00 PM21 °FLight snow. Low clouds.10 mph86%29.92 "Hg1 mi
1:00 PM21 °FLight snow. Low clouds.9 mph86%30.00 "Hg1 mi
12:00 PM21 °FLight snow. Overcast.7 mph74%30.10 "Hg3 mi
11:00 AM23 °FOvercast.10 mph63%30.16 "Hg12 mi
10:00 AM23 °FOvercast.7 mph68%30.21 "Hg12 mi
9:00 AM16 °FOvercast.No wind79%30.27 "Hg12 mi
8:00 AM12 °FOvercast.No wind79%30.27 "Hg10 mi
7:00 AM7 °FPartly sunny.2 mph85%30.32 "Hg12 mi
6:00 AM3 °FPassing clouds.No wind85%30.35 "Hg15 mi
5:00 AM1 °FPassing clouds.2 mph71%30.37 "Hg15 mi
4:00 AM0 °FPassing clouds.2 mph78%30.38 "Hg15 mi
3:00 AM1 °FClear.No wind71%30.38 "Hg15 mi
2:00 AM3 °FClear.No wind85%30.40 "Hg15 mi
1:00 AM5 °FClear.No wind92%30.40 "Hg15 mi
12:00 AM7 °FClear.2 mph85%30.42 "Hg15 mi
11:00 PM
Mon, Mar 2
9 °FClear.2 mph85%30.43 "Hg15 mi
10:00 PM16 °FClear.2 mph73%30.43 "Hg15 mi
9:00 PM18 °FClear.2 mph62%30.44 "Hg15 mi
8:00 PM19 °FClear.3 mph58%30.43 "Hg15 mi
7:00 PM19 °FPassing clouds.7 mph63%30.43 "Hg15 mi
6:00 PM21 °FPassing clouds.15 mph54%30.40 "Hg15 mi
Weather by CustomWeather, © 2015

See weather overviewHow to use our weather pages